Tracking 19709 objects as of 17-Jun-2019
HD Live streaming from Space Station
objects crossing your sky now

COSMOS 1341

Track COSMOS 1341 now!
COSMOS 1341 is classified as:


NORAD ID: 13080
Int'l Code: 1982-016A
Perigee: 2,816.9 km
Apogee: 37,611.9 km
Inclination: 67.5 °
Period: 719.0 minutes
Semi major axis: 26585 km
RCS: 8.091 m2 (large)
Launch date: March 3, 1982
Source: Commonwealth of Independent States (former USSR) (CIS)
Launch site: PLESETSK MISSILE AND SPACE COMPLEX (PKMTR)
aabbcc
Your satellite tracking list
Your tracking list is empty




NASA's NSSDC Master Catalog

Two Line Element Set (TLE):
1 13080U 82016A   19167.49134919 -.00000445 +00000-0 +00000-0 0  9997
2 13080 067.4543 173.8268 6544012 023.8981 356.1433 02.00280327183451
Source of the keplerian elements: AFSPC